sat.trackr.live / text

‹ back to catalog

STARLINK-32564

NORAD 61924 · 2024-207N

PAYLOAD ACTIVE UNKNOWN

§ Identity

Operator
Country
US
Launch date
2024-11-11
Launch site
AFETR
Launch vehicle
Mass (kg)
RCS (m²)

Purposes: comms

External: N2YO · Heavens-Above · Gunter

§ Orbital elements

Epoch: 2026-05-25T05:31:18.172416Z

Period
94.27 min
Inclination
43.0014°
Eccentricity
0.0000966
Mean motion
15.27586668 rev/d
Perigee alt
482.4 km
Apogee alt
483.7 km
Semi-major
6,861.2 km
B*
3.6149e-4
RAAN
213.3122°
Arg perigee
277.8134°
Mean anomaly
82.2608°
Rev number
8,638

§ Raw data

STARLINK-325641 61924U 24207N   26145.23007144  .00009701  00000+0  36149-3 0  99982 61924  43.0014 213.3122 0000966 277.8134  82.2608 15.27586668 86388

JSON: /api/v1/satellites/61924 · /tle

For live sub-satellite position, see the globe view (requires WebGL).

§ Visibility from observer

Set your observer location to see the next 7 days of passes ≥ 10°. The values pass through the URL so the page stays shareable.

No JS? Fill the form by hand. The geolocation button needs JavaScript.